Tracking 29747 objects as of 9-Oct-2024
HD Live streaming from Space Station
objects crossing your sky now

ONEWEB-0188

Track ONEWEB-0188 now!
10-day predictions
ONEWEB-0188 is classified as:


NORAD ID: 48231
Int'l Code: 2021-031X
Perigee: 1,211.5 km
Apogee: 1,214.5 km
Inclination: 87.9 °
Period: 109.5 minutes
Semi major axis: 7584 km
RCS: Unknown
Launch date: April 25, 2021
Source: United Kingdom (UK)
Launch site: VOSTOCHNY COSMODROME (VOSTO)
Your satellite tracking list
Your tracking list is empty




NASA's NSSDC Master Catalog

Two Line Element Set (TLE):
1 48231U 21031X   24282.88342979 -.00002537  00000-0 -68826-2 0  9994
2 48231  87.8990  52.2946 0001942  93.0260 267.1092 13.14482998167173
Source of the keplerian elements: AFSPC